This is the latest recevied weather packets stored in our database for station/object NI4CE-10. If no packets are shown the sender has not sent any weather packets the latest 10 day(s).
| Time | Temp. | Humidity | Pressure | Rain* | Wind** | Luminosity | Snow |
|---|---|---|---|---|---|---|---|
| 1777438287 | 20° C | 100% | 1019.8 hPa | 0 mm | - | - | - |
| 1777438060 | 20° C | 100% | 1019.8 hPa | 0 mm | - | - | - |
| 1777437987 | 20° C | 100% | 1019.8 hPa | 0 mm | - | - | - |
| 1777437872 | 20° C | 100% | 1020.4 hPa | 0 mm | - | - | - |
| 1777437687 | 19.44° C | 100% | 1020 hPa | 0 mm | - | - | - |
| 1777437387 | 19.44° C | 100% | 1020.2 hPa | 0 mm | - | - | - |
| 1777437087 | 19.44° C | 100% | 1020.2 hPa | 0 mm | - | - | - |
| 1777436787 | 19.44° C | 100% | 1020.3 hPa | 0 mm | - | - | - |
| 1777436627 | 20° C | 100% | 1020.4 hPa | 0 mm | - | - | - |
| 1777436487 | 20° C | 100% | 1020.4 hPa | 0 mm | - | - | - |
| 1777436187 | 20° C | 100% | 1020.6 hPa | 0 mm | - | - | - |
| 1777435887 | 20° C | 100% | 1020.7 hPa | 0 mm | - | - | - |
| 1777435587 | 20.56° C | 100% | 1020.9 hPa | 0 mm | - | - | - |
| 1777435287 | 20.56° C | 100% | 1021 hPa | 0 mm | - | - | - |
| 1777435121 | 20.56° C | 100% | 1021 hPa | 0 mm | - | - | - |
| 1777434987 | 20.56° C | 100% | 1021 hPa | 0 mm | - | - | - |
| 1777434687 | 21.11° C | 100% | 1021 hPa | 0 mm | - | - | - |
| 1777434387 | 21.11° C | 100% | 1021 hPa | 0 mm | - | - | - |
| 1777434087 | 21.67° C | 100% | 1021.1 hPa | 0 mm | - | - | - |
| 1777433787 | 21.67° C | 100% | 1021.1 hPa | 0 mm | - | - | - |
| 1777433733 | 22.22° C | 100% | 1021.1 hPa | 0 mm | - | - | - |
| 1777433487 | 22.22° C | 100% | 1021.1 hPa | 0 mm | - | - | - |
| 1777433351 | 22.78° C | 100% | 1020.9 hPa | 0 mm | - | - | - |
| 1777433187 | 22.22° C | 100% | 1021.1 hPa | 0 mm | - | - | - |
| 1777432887 | 22.78° C | 100% | 1021.1 hPa | 0 mm | - | - | - |
* Rain latest hour (hover to see other rain measurements)
** Current wind speed in m/s (hover to see current wind gust speed)